Sarasota, FL

9:04 AM EST on December 12, 2019 (GMT -0500)
Sarasota-bradenton

Weather History for KSRQ - November, 2019

Change the Weather History Date:

Wednesday, November 13, 2019

  Actual Average Record
Temperature  
Mean Temperature 66 °F 70 °F  
Max Temperature 75 °F 79 °F 92 °F (1972)
Min Temperature 57 °F 60 °F 38 °F (1968)
Degree Days  
Heating Degree Days 0 1  
Month to date heating degree days 0 3  
Since 1 July heating degree days 0 6  
Cooling Degree Days 1 5  
Month to date cooling degree days 156 83  
Year to date cooling degree days 4170 3227  
Growing Degree Days 16 (Base 50)    
Moisture  
Dew Point 57 °F    
Average Humidity 75    
Maximum Humidity 90    
Minimum Humidity 57    
Precipitation  
Precipitation 0.01 in 0.05 in 0.70 in (1949)
Month to date precipitation 0.17 0.91  
Year to date precipitation 46.93 49.46  
Sea Level Pressure  
Sea Level Pressure 30.03 in    
Wind  
Wind Speed 12 mph ()    
Max Wind Speed 20 mph    
Max Gust Speed 27 mph    
Visibility 9.4 miles    
Events Rain    
T = Trace of Precipitation, MM = Missing Value Source: Averaged Metar Reports

Daily Weather History Graph

Daily Weather History Graph

Search for Another Location

Airport or City:

Astronomy

Nov. 13, 2019 Rise Set
Actual Time 6:49 AM EST 5:39 PM EST
Civil Twilight 6:24 AM EST 6:04 PM EST
Nautical Twilight 5:56 AM EST 6:32 PM EST
Astronomical Twilight 5:28 AM EST 6:59 PM EST
Moon 6:44 PM EST (11/13) 7:40 AM EST (11/13)
Length of Visible Light 11h 39m
Length of Day
10h 50m
Full, 99% of the Moon is Illuminated
Nov 13
Full
Nov 19
Last Quarter
Nov 26
New
Dec 4
First Quarter
Dec 12
Full

Hourly Weather History & Observations

Time (EST) Temp. Dew Point Humidity Pressure Visibility Wind Dir Wind Speed Gust Speed Precip Events Conditions
12:41 AM 70.0 °F 66.0 °F 87% 29.95 in 9.0 mi North 9.2 mph - N/A   Overcast
12:53 AM 69.1 °F 64.9 °F 87% 29.95 in 10.0 mi NNW 13.8 mph - N/A   Overcast
1:53 AM 66.9 °F 64.0 °F 90% 29.95 in 5.0 mi North 15.0 mph 19.6 mph 0.00 in Rain Light Rain
2:53 AM 64.0 °F 61.0 °F 90% 29.96 in 6.0 mi NNE 13.8 mph 20.7 mph 0.00 in Rain Light Rain
3:53 AM 62.1 °F 59.0 °F 90% 29.97 in 6.0 mi NE 13.8 mph - 0.01 in   Overcast
4:53 AM 57.9 °F 55.0 °F 90% 29.99 in 4.0 mi NE 12.7 mph - 0.00 in Rain Light Rain
5:53 AM 57.9 °F 55.0 °F 90% 30.01 in 10.0 mi NE 10.4 mph - 0.00 in   Overcast
6:15 AM 57.9 °F 55.0 °F 90% 30.02 in 10.0 mi NE 11.5 mph - N/A   Overcast
6:45 AM 57.9 °F 54.0 °F 87% 30.03 in 10.0 mi NE 11.5 mph - N/A   Overcast
6:53 AM 59.0 °F 54.0 °F 83% 30.03 in 10.0 mi NE 11.5 mph 21.9 mph N/A   Overcast
7:15 AM 59.0 °F 54.0 °F 83% 30.04 in 10.0 mi NE 16.1 mph 20.7 mph N/A   Overcast
7:53 AM 59.0 °F 54.0 °F 83% 30.05 in 10.0 mi NE 15.0 mph 20.7 mph N/A   Overcast
8:00 AM 59.0 °F 54.0 °F 83% 30.06 in 10.0 mi NE 11.5 mph 21.9 mph N/A   Overcast
8:50 AM 60.8 °F 53.6 °F 77% 30.07 in 10.0 mi NE 15.0 mph - N/A   Overcast
8:53 AM 61.0 °F 54.0 °F 78% 30.07 in 10.0 mi NE 13.8 mph - N/A   Overcast
9:53 AM 64.9 °F 55.0 °F 70% 30.08 in 10.0 mi NE 10.4 mph 21.9 mph N/A   Scattered Clouds
10:53 AM 68.0 °F 55.9 °F 65% 30.08 in 10.0 mi ENE 13.8 mph - N/A   Scattered Clouds
11:53 AM 71.1 °F 57.0 °F 61% 30.07 in 10.0 mi ENE 11.5 mph - N/A   Overcast
12:53 PM 73.9 °F 57.9 °F 57% 30.04 in 10.0 mi NE 11.5 mph 19.6 mph N/A   Scattered Clouds
1:53 PM 73.9 °F 57.9 °F 57% 30.03 in 10.0 mi NE 15.0 mph 23.0 mph N/A   Overcast
2:24 PM 73.0 °F 57.9 °F 59% 30.03 in 10.0 mi NE 12.7 mph - N/A   Overcast
2:53 PM 72.0 °F 57.9 °F 61% 30.02 in 10.0 mi ENE 13.8 mph - N/A   Overcast
3:53 PM 71.1 °F 57.9 °F 63% 30.03 in 10.0 mi ENE 18.4 mph 24.2 mph N/A   Overcast
4:53 PM 71.1 °F 57.9 °F 63% 30.03 in 10.0 mi ENE 12.7 mph - N/A   Overcast
5:48 PM 69.8 °F 57.2 °F 64% 30.04 in 10.0 mi NE 16.1 mph 23.0 mph N/A   Overcast
5:53 PM 69.1 °F 57.9 °F 68% 30.04 in 10.0 mi ENE 15.0 mph 23.0 mph N/A   Overcast
6:20 PM 69.1 °F 57.9 °F 68% 30.05 in 10.0 mi East 16.1 mph 23.0 mph N/A   Mostly Cloudy
6:53 PM 69.1 °F 57.9 °F 68% 30.07 in 10.0 mi ENE 10.4 mph 19.6 mph N/A   Scattered Clouds
8:53 PM 68.0 °F 57.9 °F 70% 30.07 in 10.0 mi ENE 12.7 mph - N/A   Mostly Cloudy
9:53 PM 68.0 °F 57.9 °F 70% 30.07 in 10.0 mi ENE 11.5 mph - N/A   Mostly Cloudy
10:53 PM 68.0 °F 57.0 °F 68% 30.06 in 10.0 mi ENE 11.5 mph - N/A   Scattered Clouds
11:53 PM 68.0 °F 57.0 °F 68% 30.05 in 10.0 mi ENE 10.4 mph - N/A   Mostly Cloudy